TimeEDT,TemperatureF,Dew PointF,Humidity,Sea Level PressureIn,VisibilityMPH,Wind Direction,Wind SpeedMPH,Gust SpeedMPH,PrecipitationIn,Events,Conditions,WindDirDegrees,DateUTC
12:54 AM,48.9,46.0,90,30.09,10.0,South,3.5,-,N/A,,Clear,190,2013-09-10 04:54:00
1:54 AM,48.9,46.0,90,30.09,10.0,Calm,Calm,-,N/A,,Clear,0,2013-09-10 05:54:00
2:54 AM,48.0,45.0,89,30.07,10.0,Calm,Calm,-,N/A,,Clear,0,2013-09-10 06:54:00
3:54 AM,50.0,46.0,86,30.07,10.0,Calm,Calm,-,N/A,,Partly Cloudy,0,2013-09-10 07:54:00
4:54 AM,50.0,46.9,89,30.06,10.0,Calm,Calm,-,N/A,,Partly Cloudy,0,2013-09-10 08:54:00
5:54 AM,52.0,46.9,83,30.04,10.0,Calm,Calm,-,N/A,,Overcast,0,2013-09-10 09:54:00
6:54 AM,52.0,48.0,86,30.05,10.0,Calm,Calm,-,0.00,,Overcast,0,2013-09-10 10:54:00
7:54 AM,53.1,51.1,93,30.04,10.0,Calm,Calm,-,0.02,,Overcast,0,2013-09-10 11:54:00
8:54 AM,55.0,53.1,93,30.02,10.0,Calm,Calm,-,0.00,Rain,Light Rain,0,2013-09-10 12:54:00
9:17 AM,55.4,53.6,94,30.01,8.0,Calm,Calm,-,0.01,Rain,Light Rain,0,2013-09-10 13:17:00
9:54 AM,57.0,55.0,93,30.03,10.0,Calm,Calm,-,0.01,Rain,Light Rain,0,2013-09-10 13:54:00
10:12 AM,57.2,55.4,94,30.03,2.5,Calm,Calm,-,0.03,Rain,Rain,0,2013-09-10 14:12:00
10:22 AM,57.2,55.4,94,30.04,1.8,Calm,Calm,-,0.06,Rain,Rain,0,2013-09-10 14:22:00
10:25 AM,57.2,55.4,94,30.04,2.0,Calm,Calm,-,0.07,Rain,Rain,0,2013-09-10 14:25:00
10:45 AM,57.2,55.4,94,30.03,1.8,Calm,Calm,-,0.13,Rain,Rain,0,2013-09-10 14:45:00
10:54 AM,57.0,55.9,96,30.04,2.5,Calm,Calm,-,0.15,Rain,Rain,0,2013-09-10 14:54:00
11:02 AM,57.2,55.4,94,30.03,2.5,Calm,Calm,-,0.01,Rain,Light Rain,0,2013-09-10 15:02:00
11:18 AM,57.2,57.2,100,30.03,3.0,Calm,Calm,-,0.04,Rain,Light Rain,0,2013-09-10 15:18:00
11:31 AM,60.8,57.2,88,30.03,5.0,Calm,Calm,-,0.05,Rain,Light Rain,0,2013-09-10 15:31:00
11:45 AM,60.8,57.2,88,30.02,8.0,Calm,Calm,-,0.05,,Overcast,0,2013-09-10 15:45:00
11:54 AM,61.0,57.9,90,30.03,8.0,Calm,Calm,-,0.05,,Overcast,0,2013-09-10 15:54:00
12:54 PM,63.0,60.1,90,30.03,10.0,Calm,Calm,-,N/A,,Overcast,0,2013-09-10 16:54:00
1:15 PM,64.4,60.8,88,30.02,10.0,Calm,Calm,-,N/A,,Overcast,0,2013-09-10 17:15:00
1:22 PM,64.4,60.8,88,30.02,10.0,Calm,Calm,-,N/A,,Overcast,0,2013-09-10 17:22:00
1:54 PM,64.9,61.0,87,30.02,10.0,Calm,Calm,-,N/A,,Overcast,0,2013-09-10 17:54:00
2:54 PM,68.0,63.0,84,30.01,10.0,Calm,Calm,-,N/A,,Overcast,0,2013-09-10 18:54:00
3:54 PM,71.1,64.9,81,30.00,10.0,Calm,Calm,-,N/A,,Partly Cloudy,0,2013-09-10 19:54:00
4:54 PM,72.0,64.9,78,30.00,10.0,Calm,Calm,-,N/A,,Partly Cloudy,0,2013-09-10 20:54:00
5:54 PM,70.0,66.0,87,30.00,10.0,Calm,Calm,-,N/A,,Overcast,0,2013-09-10 21:54:00
6:54 PM,68.0,66.0,93,30.01,10.0,West,3.5,-,N/A,,Overcast,270,2013-09-10 22:54:00
7:54 PM,68.0,66.0,93,30.01,10.0,Calm,Calm,-,N/A,,Overcast,0,2013-09-10 23:54:00
8:54 PM,68.0,66.0,93,30.02,10.0,Calm,Calm,-,N/A,,Overcast,0,2013-09-11 00:54:00
9:54 PM,69.1,66.0,90,30.02,10.0,South,3.5,-,N/A,,Overcast,180,2013-09-11 01:54:00
10:54 PM,68.0,66.0,93,30.02,8.0,Calm,Calm,-,N/A,,Overcast,0,2013-09-11 02:54:00
11:54 PM,66.0,64.0,93,30.01,2.5,Calm,Calm,-,N/A,,Partly Cloudy,0,2013-09-11 03:54:00
11:59 PM,64.4,64.4,100,30.01,1.0,Calm,Calm,-,N/A,,Mist,0,2013-09-11 03:59:00